TimeCDT,TemperatureF,Dew PointF,Humidity,Sea Level PressureIn,VisibilityMPH,Wind Direction,Wind SpeedMPH,Gust SpeedMPH,PrecipitationIn,Events,Conditions,WindDirDegrees,DateUTC
12:54 AM,75.0,71.1,87,29.88,10.0,Calm,Calm,-,N/A,,Clear,0,2012-09-04 05:54:00
1:54 AM,75.0,72.0,90,29.87,10.0,Calm,Calm,-,N/A,,Clear,0,2012-09-04 06:54:00
2:54 AM,75.9,71.1,85,29.88,10.0,Calm,Calm,-,N/A,,Scattered Clouds,0,2012-09-04 07:54:00
3:54 AM,73.9,71.1,91,29.85,10.0,Calm,Calm,-,N/A,,Clear,0,2012-09-04 08:54:00
4:54 AM,73.0,71.1,93,29.86,8.0,Calm,Calm,-,N/A,,Scattered Clouds,0,2012-09-04 09:54:00
5:54 AM,73.0,71.1,93,29.88,7.0,Calm,Calm,-,N/A,,Clear,0,2012-09-04 10:54:00
6:54 AM,73.0,71.1,93,29.89,7.0,Calm,Calm,-,N/A,,Clear,0,2012-09-04 11:54:00
7:54 AM,75.9,71.1,85,29.89,9.0,Calm,Calm,-,N/A,,Clear,0,2012-09-04 12:54:00
8:54 AM,79.0,71.1,77,29.89,10.0,Calm,Calm,-,N/A,,Clear,0,2012-09-04 13:54:00
9:54 AM,81.0,73.0,77,29.90,10.0,Calm,Calm,-,N/A,,Clear,0,2012-09-04 14:54:00
10:54 AM,84.0,73.0,69,29.90,10.0,SW,4.6,-,N/A,,Clear,230,2012-09-04 15:54:00
11:54 AM,84.9,72.0,65,29.88,10.0,Calm,Calm,-,N/A,,Clear,0,2012-09-04 16:54:00
12:54 PM,87.1,72.0,61,29.87,10.0,SSW,4.6,-,N/A,,Mostly Cloudy,210,2012-09-04 17:54:00
1:54 PM,88.0,70.0,55,29.86,10.0,SW,3.5,-,N/A,,Clear,230,2012-09-04 18:54:00
2:54 PM,89.1,71.1,55,29.83,10.0,West,3.5,-,N/A,,Clear,260,2012-09-04 19:54:00
3:54 PM,89.1,70.0,53,29.83,10.0,WSW,4.6,-,N/A,,Clear,250,2012-09-04 20:54:00
4:54 PM,89.6,69.8,52,29.84,10.0,West,4.6,-,N/A,,Clear,280,2012-09-04 21:54:00
5:54 PM,89.1,68.0,50,29.82,10.0,Variable,3.5,-,N/A,,Clear,0,2012-09-04 22:54:00
6:54 PM,87.1,69.1,55,29.81,10.0,SSW,3.5,-,N/A,,Clear,210,2012-09-04 23:54:00
7:54 PM,82.0,71.1,69,29.81,10.0,Calm,Calm,-,N/A,,Clear,0,2012-09-05 00:54:00
8:54 PM,79.0,71.1,77,29.81,10.0,Calm,Calm,-,N/A,,Clear,0,2012-09-05 01:54:00
9:54 PM,79.0,71.1,77,29.82,10.0,Calm,Calm,-,N/A,,Clear,0,2012-09-05 02:54:00
10:54 PM,78.1,71.1,79,29.83,10.0,South,4.6,-,N/A,,Clear,180,2012-09-05 03:54:00
11:54 PM,77.0,69.1,76,29.82,10.0,SSW,3.5,-,N/A,,Clear,200,2012-09-05 04:54:00